TimeEDT,TemperatureF,Dew PointF,Humidity,Sea Level PressureIn,VisibilityMPH,Wind Direction,Wind SpeedMPH,Gust SpeedMPH,PrecipitationIn,Events,Conditions,WindDirDegrees,DateUTC
12:01 AM,48.2,48.2,100,30.19,1.8,Calm,Calm,-,N/A,,Clear,0,2013-04-17 04:01:00
12:20 AM,46.4,46.4,100,30.19,0.5,Calm,Calm,-,N/A,Fog,Fog,0,2013-04-17 04:20:00
12:28 AM,46.4,46.4,100,30.20,0.2,Calm,Calm,-,N/A,Fog,Fog,0,2013-04-17 04:28:00
12:54 AM,45.0,45.0,100,30.20,0.2,Calm,Calm,-,N/A,Fog,Fog,0,2013-04-17 04:54:00
1:08 AM,46.4,46.4,100,30.21,0.2,Calm,Calm,-,N/A,Fog,Fog,0,2013-04-17 05:08:00
1:26 AM,46.4,44.6,93,30.20,0.5,Calm,Calm,-,N/A,Fog,Fog,0,2013-04-17 05:26:00
1:34 AM,44.6,44.6,100,30.20,0.2,Calm,Calm,-,N/A,Fog,Fog,0,2013-04-17 05:34:00
1:54 AM,46.0,46.0,100,30.20,0.2,NE,3.5,-,N/A,Fog,Fog,40,2013-04-17 05:54:00
2:39 AM,46.4,46.4,100,30.21,0.5,Calm,Calm,-,N/A,Fog,Fog,0,2013-04-17 06:39:00
2:46 AM,48.2,48.2,100,30.20,2.0,ENE,3.5,-,N/A,,Overcast,70,2013-04-17 06:46:00
2:54 AM,46.9,46.9,100,30.20,3.0,Calm,Calm,-,N/A,,Overcast,0,2013-04-17 06:54:00
3:01 AM,46.4,46.4,100,30.20,2.5,NE,4.6,-,N/A,,Overcast,50,2013-04-17 07:01:00
3:16 AM,48.2,48.2,100,30.22,4.0,NNE,3.5,-,N/A,,Overcast,30,2013-04-17 07:16:00
3:45 AM,48.2,46.4,93,30.20,4.0,NE,5.8,-,N/A,,Mostly Cloudy,50,2013-04-17 07:45:00
3:54 AM,46.9,46.9,100,30.21,4.0,NNE,3.5,-,N/A,,Mostly Cloudy,20,2013-04-17 07:54:00
4:54 AM,48.9,48.0,97,30.22,5.0,NNE,4.6,-,N/A,,Overcast,30,2013-04-17 08:54:00
5:54 AM,48.9,46.0,90,30.23,8.0,NE,5.8,-,N/A,,Overcast,40,2013-04-17 09:54:00
6:54 AM,48.9,45.0,86,30.26,9.0,ENE,5.8,-,N/A,,Overcast,60,2013-04-17 10:54:00
7:54 AM,48.0,43.0,83,30.28,10.0,ENE,9.2,-,N/A,,Overcast,70,2013-04-17 11:54:00
8:54 AM,48.9,39.9,71,30.26,10.0,ENE,9.2,-,N/A,,Mostly Cloudy,70,2013-04-17 12:54:00
9:54 AM,51.8,39.2,62,30.27,10.0,ENE,10.4,-,N/A,,Clear,70,2013-04-17 13:54:00
10:54 AM,55.0,39.9,57,30.26,10.0,NE,15.0,-,N/A,,Clear,50,2013-04-17 14:54:00
11:54 AM,57.0,39.9,53,30.27,10.0,ENE,5.8,-,N/A,,Clear,60,2013-04-17 15:54:00
12:54 PM,60.1,42.1,51,30.24,10.0,Variable,5.8,-,N/A,,Clear,0,2013-04-17 16:54:00
1:54 PM,62.1,43.0,50,30.24,10.0,Variable,5.8,-,N/A,,Overcast,0,2013-04-17 17:54:00
2:54 PM,64.0,41.0,43,30.22,10.0,ENE,4.6,-,N/A,,Overcast,60,2013-04-17 18:54:00
3:54 PM,64.0,42.1,45,30.18,10.0,ENE,9.2,-,N/A,,Overcast,70,2013-04-17 19:54:00
4:54 PM,64.0,41.0,43,30.16,10.0,East,5.8,-,N/A,,Overcast,80,2013-04-17 20:54:00
5:54 PM,66.0,43.0,43,30.14,10.0,Calm,Calm,-,N/A,,Overcast,0,2013-04-17 21:54:00
6:54 PM,64.9,43.0,45,30.12,10.0,Variable,3.5,-,N/A,,Mostly Cloudy,0,2013-04-17 22:54:00
7:54 PM,64.0,44.1,48,30.12,10.0,Calm,Calm,-,N/A,,Clear,0,2013-04-17 23:54:00
8:54 PM,61.0,45.0,56,30.11,10.0,South,5.8,-,N/A,,Clear,180,2013-04-18 00:54:00
9:54 PM,61.0,51.1,70,30.09,10.0,SSE,4.6,-,N/A,,Clear,160,2013-04-18 01:54:00
10:54 PM,60.1,53.1,78,30.06,10.0,Variable,4.6,-,N/A,,Clear,0,2013-04-18 02:54:00
11:54 PM,59.0,53.1,81,30.07,10.0,Calm,Calm,-,N/A,,Clear,0,2013-04-18 03:54:00